Location: Trebic
(49.2170°N, 15.8830°E)
Time: 13:38:19
(UTC+02:00)

Transit 4A - Pass Details

Date: 27 August 2019
Orbit: 865 x 980 km, 66.8° (Epoch: 19 September)

Event Time Altitude Azimuth Distance (km) Brightness Sun altitude
Rises 00:09:35 0° 319° (NW) 3,666 11.9 -29.6°
Reaches altitude 10° 00:12:52 10° 335° (NNW) 2,702 11.2 -29.7°
Maximum altitude 00:17:35 22° 24° (NNE) 1,970 10.1 -29.9°
Drops below altitude 10° 00:22:12 10° 73° (ENE) 2,640 10.3 -30.0°
Enters shadow 00:24:41 - 86° (E) 3,352 10.8 -30.1°
Sets 00:25:21 0° 89° (E) 3,559 - -30.1°
